West Bend, WI

4:36 AM CDT on September 25, 2016 (GMT -0500)
West Bend Municipal

Weather History for KETB - November, 2012

Change the Weather History Date:

Monday, November 5, 2012

  Actual Average Record
Temperature  
Mean Temperature 34 °F -  
Max Temperature 41 °F 47 °F 72 °F (1924)
Min Temperature 26 °F 30 °F 3 °F (1998)
Degree Days  
Heating Degree Days 32    
Moisture  
Dew Point 30 °F    
Average Humidity 86    
Maximum Humidity 100    
Minimum Humidity 70    
Precipitation  
Precipitation 0.00 in - - ()
Sea Level Pressure  
Sea Level Pressure 30.18 in    
Wind  
Wind Speed 2 mph (ENE)    
Max Wind Speed 13 mph    
Max Gust Speed 18 mph    
Visibility 10 miles    
Events Rain , Snow    
Averages and records for this station are not official NWS values.
T = Trace of Precipitation, MM = Missing Value Source: NWS Daily Summary

Daily Weather History Graph

Daily Weather History Graph

Search for Another Location

Airport or City:

Trip Planner

Search our weather history database for the weather conditions in past years. The results will help you decide how hot, cold, wet, or windy it might be!

Date:

Astronomy

Nov. 05, 2012 Rise Set
Actual Time 6:33 AM CST 4:38 PM CST
Civil Twilight 6:03 AM CST 5:08 PM CST
Nautical Twilight 5:29 AM CST 5:42 PM CST
Astronomical Twilight 4:56 AM CST 6:15 PM CST
Moon 10:15 PM CST (11/5) 11:53 AM CST (11/5)
Length of Visible Light 11h 04m
Length of Day
10h 04m
Waning Gibbous, 62% of the Moon is Illuminated
Nov 5
Waning Gibbous
Nov 6
Last Quarter
Nov 13
New
Nov 20
First Quarter
Nov 28
Full

Hourly Weather History & Observations

Time (CST) Temp. Windchill Dew Point Humidity Pressure Visibility Wind Dir Wind Speed Gust Speed Precip Events Conditions
12:15 AM 26.6 °F - 23.0 °F 86% 30.21 in 10.0 mi Calm Calm - N/A   Clear
12:35 AM 26.6 °F - 24.8 °F 93% 30.21 in 7.0 mi Calm Calm - N/A   Clear
12:55 AM 26.6 °F - 24.8 °F 93% 30.21 in 10.0 mi Calm Calm - N/A   Scattered Clouds
1:15 AM 26.6 °F - 23.0 °F 86% 30.21 in 10.0 mi Calm Calm - N/A   Overcast
1:35 AM 28.4 °F - 26.6 °F 93% 30.21 in 10.0 mi Calm Calm - N/A   Overcast
1:55 AM 28.4 °F - 26.6 °F 93% 30.21 in 10.0 mi Calm Calm - N/A   Overcast
2:15 AM 28.4 °F - 26.6 °F 93% 30.21 in 10.0 mi Calm Calm - N/A   Overcast
2:35 AM 28.4 °F - 26.6 °F 93% 30.21 in 10.0 mi Calm Calm - N/A   Overcast
2:55 AM 28.4 °F - 26.6 °F 93% 30.20 in 10.0 mi Calm Calm - N/A   Scattered Clouds
3:15 AM 28.4 °F 24.6 °F 26.6 °F 93% 30.20 in 10.0 mi WSW 3.5 mph - N/A   Clear
3:35 AM 26.6 °F - 24.8 °F 93% 30.20 in 10.0 mi Calm Calm - N/A   Mostly Cloudy
3:55 AM 26.6 °F - 24.8 °F 93% 30.21 in 10.0 mi Calm Calm - N/A   Overcast
4:15 AM 28.4 °F - 26.6 °F 93% 30.21 in 10.0 mi Calm Calm - N/A   Overcast
4:35 AM 28.4 °F 24.6 °F 26.6 °F 93% 30.21 in 10.0 mi West 3.5 mph - N/A   Mostly Cloudy
4:55 AM 28.4 °F 24.6 °F 26.6 °F 93% 30.21 in 10.0 mi West 3.5 mph - N/A   Mostly Cloudy
5:15 AM 28.4 °F - 24.8 °F 86% 30.21 in 10.0 mi Calm Calm - N/A   Mostly Cloudy
5:35 AM 28.4 °F 24.6 °F 26.6 °F 93% 30.21 in 10.0 mi West 3.5 mph - N/A   Overcast
5:55 AM 28.4 °F - 24.8 °F 86% 30.21 in 10.0 mi Calm Calm - N/A   Overcast
6:15 AM 28.4 °F - 26.6 °F 93% 30.21 in 10.0 mi Calm Calm - N/A   Overcast
6:35 AM 30.2 °F - 28.4 °F 93% 30.21 in 4.0 mi Calm Calm - N/A Snow Light Snow
7:15 AM 32.0 °F - 30.2 °F 93% 30.21 in 1.8 mi Calm Calm - N/A Snow Light Snow
7:35 AM 32.0 °F - 30.2 °F 93% 30.22 in 2.5 mi Calm Calm - N/A Snow Light Snow
7:55 AM 32.0 °F - 32.0 °F 100% 30.22 in 10.0 mi Calm Calm - N/A   Overcast
8:15 AM 33.8 °F 30.8 °F 32.0 °F 93% 30.22 in 7.0 mi North 3.5 mph - N/A Snow Light Snow
8:35 AM 33.8 °F 28.6 °F 32.0 °F 93% 30.22 in 7.0 mi NNE 5.8 mph - N/A Snow Light Snow
8:55 AM 35.6 °F 29.2 °F 32.0 °F 87% 30.21 in 10.0 mi NNE 8.1 mph - N/A   Overcast
9:15 AM 37.4 °F 30.3 °F 32.0 °F 81% 30.21 in 10.0 mi NNE 10.4 mph - N/A   Overcast
9:35 AM 37.4 °F 31.4 °F 32.0 °F 81% 30.22 in 10.0 mi NNE 8.1 mph - N/A   Mostly Cloudy
9:55 AM 37.4 °F 30.8 °F 32.0 °F 81% 30.22 in 10.0 mi NE 9.2 mph - N/A   Overcast
10:15 AM 39.2 °F 31.6 °F 33.8 °F 81% 30.21 in 10.0 mi NE 12.7 mph - N/A   Overcast
10:35 AM 37.4 °F 31.4 °F 33.8 °F 87% 30.21 in 10.0 mi ENE 8.1 mph 18.4 mph N/A   Overcast
11:55 AM 37.4 °F 31.4 °F 33.8 °F 87% 30.20 in 10.0 mi NNE 8.1 mph - N/A   Drizzle
12:15 PM 37.4 °F 32.1 °F 33.8 °F 87% 30.19 in 10.0 mi ENE 6.9 mph - N/A   Drizzle
12:35 PM 39.2 °F 37.0 °F 33.8 °F 81% 30.19 in 10.0 mi ENE 3.5 mph - N/A   Light Drizzle
12:55 PM 39.2 °F 34.2 °F 33.8 °F 81% 30.19 in 10.0 mi NE 6.9 mph - N/A Rain Light Rain
1:15 PM 39.2 °F 32.5 °F 33.8 °F 81% 30.17 in 10.0 mi NE 10.4 mph - N/A Rain Light Rain
1:55 PM 41.0 °F 35.2 °F 33.8 °F 76% 30.17 in 10.0 mi ENE 9.2 mph - N/A   Overcast
2:15 PM 39.2 °F 34.2 °F 33.8 °F 81% 30.17 in 10.0 mi East 6.9 mph - N/A   Overcast
2:35 PM 39.2 °F 37.0 °F 32.0 °F 75% 30.16 in 10.0 mi East 3.5 mph - N/A   Overcast
2:55 PM 39.2 °F 35.0 °F 32.0 °F 75% 30.17 in 10.0 mi East 5.8 mph - N/A   Overcast
3:35 PM 37.4 °F 32.1 °F 32.0 °F 81% 30.16 in 10.0 mi ENE 6.9 mph - N/A   Overcast
3:55 PM 37.4 °F 34.9 °F 32.0 °F 81% 30.16 in 10.0 mi East 3.5 mph - N/A   Overcast
4:55 PM 37.4 °F - 32.0 °F 81% 30.17 in 10.0 mi Calm Calm - N/A   Overcast
5:15 PM 37.4 °F - 32.0 °F 81% 30.17 in 10.0 mi Calm Calm - N/A   Overcast
5:35 PM 37.4 °F 33.8 °F 32.0 °F 81% 30.17 in 10.0 mi ESE 4.6 mph - N/A   Overcast
6:15 PM 37.4 °F - 32.0 °F 81% 30.17 in 10.0 mi Calm Calm - N/A   Overcast
6:35 PM 37.4 °F 34.9 °F 32.0 °F 81% 30.16 in 10.0 mi ESE 3.5 mph - N/A   Overcast
6:55 PM 35.6 °F 31.7 °F 32.0 °F 87% 30.16 in 10.0 mi East 4.6 mph - N/A   Overcast
7:15 PM 35.6 °F - 30.2 °F 81% 30.16 in 10.0 mi Calm Calm - N/A   Overcast
7:35 PM 35.6 °F 31.7 °F 30.2 °F 81% 30.15 in 10.0 mi ESE 4.6 mph - N/A   Overcast
7:55 PM 37.4 °F 34.9 °F 30.2 °F 75% 30.15 in 10.0 mi East 3.5 mph - N/A   Overcast
8:15 PM 35.6 °F 32.8 °F 30.2 °F 81% 30.15 in 10.0 mi East 3.5 mph - N/A   Overcast
8:55 PM 37.4 °F - 28.4 °F 70% 30.14 in 10.0 mi Calm Calm - N/A   Overcast
9:15 PM 35.6 °F 31.7 °F 30.2 °F 81% 30.14 in 10.0 mi SSW 4.6 mph - N/A   Overcast
9:35 PM 35.6 °F - 30.2 °F 81% 30.13 in 10.0 mi Calm Calm - N/A   Overcast
10:15 PM 35.6 °F - 30.2 °F 81% 30.12 in 10.0 mi Calm Calm - N/A   Overcast
10:35 PM 35.6 °F - 32.0 °F 87% 30.12 in 10.0 mi Calm Calm - N/A   Overcast
10:55 PM 35.6 °F - 32.0 °F 87% 30.11 in 10.0 mi Calm Calm - N/A   Overcast
11:15 PM 35.6 °F - 32.0 °F 87% 30.11 in 10.0 mi Calm Calm - N/A   Overcast
11:35 PM 35.6 °F - 30.2 °F 81% 30.10 in 10.0 mi Calm Calm - N/A   Overcast
11:55 PM 35.6 °F 32.8 °F 32.0 °F 87% 30.09 in 10.0 mi SE 3.5 mph - N/A   Overcast